Location: Calvera
(42.3882°N, 0.6137°E)
Time: 19:15:13
(UTC+00:00)

Nadezhda 4 Rocket - Pass Details

Date: 28 October 2020
Orbit: 950 x 991 km, 82.9° (Epoch: 23 November)

Event Time Altitude Azimuth Distance (km) Brightness Sun altitude
Rises 04:41:00 0° 199° (SSW) 3,609 6.8 -20.0°
Reaches altitude 10° 04:43:32 10° 204° (SSW) 2,668 6.1 -19.5°
Maximum altitude 04:49:30 55° 281° (WNW) 1,137 4.0 -18.4°
Drops below altitude 10° 04:55:32 10° 359° (N) 2,696 6.3 -17.3°
Sets 04:58:07 0° 4° (N) 3,651 7.0 -16.8°
